[[{"header":{"parameterUnit":"m.s-1","parameterCategory":1,"la1":30.2991,"la2":30.254,"lo1":-89.0895,"lo2":-89.0444,"dy":0.0017,"dx":0.0017,"nx":28,"ny":28,"refTime":"2023-10-16T09:00:00:Z","depth":0,"parameterNumber":2,"parameterNumberName":"U-component_of_WINDS"},"data":[0,0,0,0,0,0,0,0,0,0,0,0,0,0,0,0,0,0,0,0,0,0,0,0,0,0,0,0,0,0,0,0,0,0,0,0,0,0,0,0,0,0,0,0,0,0,0,0,0,0,0,0,0,0,0,0,0,0,1.523,1.523,0,1.5224,1.5224,1.5224,1.5218,1.5218,1.5218,1.5218,1.5211,1.521,1.521,0,0,0,0,0,0,0,0,0,0,0,0,0,1.5238,1.5237,1.523,1.523,1.523,1.5224,1.5224,1.5224,1.5218,1.5218,1.5218,1.5218,1.5211,1.521,1.521,0,0,0,0,0,0,0,0,0,0,0,0,0,1.5233,1.5237,1.523,1.5227,1.5226,1.5224,1.5224,1.5223,1.5218,1.5218,1.5218,1.5218,1.5211,1.521,1.521,1.521,0,0,1.521,1.5209,0,0,0,0,0,0,0,0,1.5233,1.5233,1.5227,1.5227,1.5227,1.5222,1.5223,1.5219,1.5218,1.5221,1.5218,1.5218,1.5214,1.5214,1.5213,1.521,1.521,1.5209,1.5209,1.5209,1.5209,0,0,0,0,0,0,0,1.5234,1.5233,1.5228,1.5227,1.5227,1.5225,1.5225,1.5223,1.5218,1.5221,1.5221,1.522,1.5214,1.5213,1.5212,1.5209,1.5209,1.5209,1.5209,1.5209,1.5207,1.5207,0,0,0,0,0,0,1.5235,1.5233,1.5228,1.5227,1.523,1.5225,1.5224,1.5223,1.5218,1.5217,1.522,1.522,1.5213,1.5213,1.5212,1.5212,1.5209,1.5209,1.5209,1.5207,1.5207,1.5207,0,0,0,0,0,0,1.5235,1.5234,1.5228,1.523,1.5229,1.5225,1.5224,1.5223,1.5222,1.5218,1.5217,1.522,1.5213,1.5213,1.5211,1.5212,1.5209,1.5209,1.5207,1.5207,1.5207,1.5212,0,0,0,0,0,0,1.5235,1.5234,1.5234,1.523,1.5229,1.5227,1.5224,1.5223,1.5222,1.5221,1.5217,1.5216,1.5213,1.5211,1.5211,1.5211,1.5209,1.5206,1.5207,1.5207,1.5211,1.5212,1.5212,0,0,0,0,0,1.5235,1.5235,1.5234,1.5234,1.5229,1.5227,1.5226,1.5223,1.5222,1.5222,1.5219,1.5216,1.5212,1.5211,1.521,1.5211,1.5206,1.5207,1.5207,1.5211,1.5212,1.5212,0,0,0,0,0,0,1.5239,1.5235,1.5233,1.5232,1.523,1.5226,1.5226,1.5224,1.5222,1.5221,1.5217,1.5216,1.5215,1.5213,1.5212,1.5211,1.5209,1.5209,1.5212,1.5213,1.5213,1.5214,1.5208,0,0,0,0,0,1.524,1.5239,1.5235,1.5234,1.5233,1.523,1.5229,1.5227,1.5224,1.5223,1.522,1.5217,1.5215,1.5214,1.5212,1.5211,1.521,1.5211,1.5212,1.5212,1.5212,1.5212,1.5212,1.5207,1.5207,1.5207,0,0,1.5241,1.5239,1.5238,1.5235,1.5233,1.5232,1.5229,1.5228,1.5227,1.5223,1.5221,1.5219,1.5216,1.5215,1.5214,1.5213,1.5213,1.5212,1.5213,1.5212,1.5212,1.5212,1.5213,1.5208,1.5208,1.5208,0,0,1.5243,1.5241,1.5241,1.5239,1.5236,1.5234,1.5234,1.5231,1.5229,1.5228,1.5225,1.5223,1.522,1.5218,1.5216,1.5219,1.5216,1.5218,1.522,1.522,1.5221,1.5221,1.5222,1.5222,1.5218,1.5218,1.5218,0,1.5245,1.5243,1.5241,1.524,1.5239,1.5235,1.5235,1.5233,1.523,1.5229,1.5228,1.5224,1.5222,1.522,1.5221,1.522,1.5219,1.5218,1.5221,1.5221,1.5221,1.5222,1.5222,1.5218,1.5218,1.5218,1.5218,0,1.5246,1.5245,1.5245,1.5242,1.5241,1.524,1.5237,1.5237,1.5235,1.5233,1.5231,1.5229,1.5226,1.5226,1.5224,1.5224,1.5223,1.5222,1.5219,1.5222,1.5223,1.5223,1.5219,1.5219,1.5219,1.5219,0,0,1.5249,1.5246,1.5246,1.5245,1.5242,1.5241,1.524,1.5238,1.5238,1.5236,1.5235,1.5233,1.5231,1.5229,1.5227,1.5227,1.5229,1.5225,1.5225,1.5226,1.523,1.5231,1.5231,1.5228,1.5228,1.5228,1.523,0,1.5251,1.5249,1.5247,1.5247,1.5246,1.5243,1.5243,1.5241,1.5239,1.5238,1.5236,1.5234,1.5232,1.5232,1.5231,1.5229,1.523,1.5229,1.5227,1.5227,1.5227,1.5231,1.5232,1.5234,1.523,1.523,1.523,0,1.5252,1.5251,1.525,1.5248,1.5247,1.5247,1.5245,1.5244,1.5242,1.5241,1.5239,1.5237,1.5236,1.5235,1.5233,1.5233,1.5232,1.5231,1.5231,1.523,1.5228,1.5231,1.5235,1.5235,1.523,1.523,1.523,0,1.5255,1.5253,1.5252,1.5251,1.5249,1.5248,1.5247,1.5245,1.5244,1.5243,1.5242,1.524,1.5239,1.5238,1.5236,1.5235,1.5235,1.5233,1.5233,1.5234,1.5233,1.5233,1.5237,1.5233,1.5233,1.5233,1.5233,0,1.5256,1.5256,1.5253,1.5253,1.5253,1.525,1.525,1.5249,1.5247,1.5246,1.5244,1.5243,1.524,1.5239,1.5237,1.5236,1.5236,1.5235,1.5234,1.5235,1.5235,1.5234,1.5234,1.5233,1.5233,1.5233,1.5233,0,1.5259,1.5257,1.5256,1.5254,1.5253,1.5253,1.5251,1.5251,1.5249,1.5249,1.5248,1.5246,1.5244,1.5242,1.524,1.5239,1.5238,1.5238,1.5239,1.5239,1.524,1.5239,1.5243,1.5243,1.5239,1.5239,1.5239,0,1.526,1.5259,1.5257,1.5257,1.5256,1.5255,1.5255,1.5252,1.5252,1.525,1.525,1.5248,1.5247,1.5245,1.5243,1.5242,1.5241,1.5242,1.524,1.5241,1.5241,1.524,1.524,1.5242,1.5242,1.5242,1.5242,0,1.5262,1.5261,1.526,1.5259,1.5258,1.5257,1.5256,1.5256,1.5254,1.5253,1.5252,1.5251,1.5249,1.5248,1.5246,1.5245,1.5243,1.5243,1.5243,1.5243,1.5244,1.5244,1.524,1.5243,1.5243,1.5243,1.5243,1.5243,1.5263,1.5263,1.5262,1.5261,1.526,1.5259,1.5259,1.5258,1.5257,1.5255,1.5254,1.5253,1.5252,1.5249,1.5248,1.5248,1.5247,1.5247,1.5247,1.5247,1.5247,1.5245,1.5247,1.5247,1.5247,1.5247,1.5247,0,1.5265,1.5264,1.5263,1.5262,1.5262,1.5261,1.526,1.5259,1.5258,1.5257,1.5256,1.5255,1.5254,1.5252,1.5251,1.5251,1.525,1.5251,1.525,1.525,1.5248,1.5248,1.5251,1.5251,1.5251,1.5251,1.5251,1.5251,1.5266,1.5265,1.5265,1.5264,1.5263,1.5262,1.5262,1.5261,1.526,1.5259,1.5259,1.5258,1.5256,1.5255,1.5254,1.5254,1.5253,1.5254,1.5253,1.5251,1.525,1.525,1.525,1.5254,1.5254,1.5255,1.5255,1.5255]},{"header":{"parameterUnit":"m.s-1","parameterCategory":1,"la1":30.2991,"la2":30.254,"lo1":-89.0895,"lo2":-89.0444,"dy":0.0017,"dx":0.0017,"nx":28,"ny":28,"refTime":"2023-10-16T09:00:00:Z","depth":0,"parameterNumber":3,"parameterNumberName":"V-component_of_WINDS"},"data":[0,0,0,0,0,0,0,0,0,0,0,0,0,0,0,0,0,0,0,0,0,0,0,0,0,0,0,0,0,0,0,0,0,0,0,0,0,0,0,0,0,0,0,0,0,0,0,0,0,0,0,0,0,0,0,0,0,0,-5.8346,-5.8347,0,-5.8464,-5.8465,-5.8467,-5.843,-5.8427,-5.8425,-5.8423,-5.854,-5.8545,-5.8551,0,0,0,0,0,0,0,0,0,0,0,0,0,-5.8085,-5.809,-5.8345,-5.8347,-5.8348,-5.8464,-5.8465,-5.8467,-5.843,-5.8427,-5.8424,-5.8421,-5.8538,-5.8545,-5.8551,0,0,0,0,0,0,0,0,0,0,0,0,0,-5.8201,-5.8092,-5.8345,-5.8344,-5.8345,-5.8464,-5.8466,-5.8468,-5.8431,-5.8427,-5.8424,-5.842,-5.8536,-5.8544,-5.8552,-5.8678,0,0,-5.8577,-5.8581,0,0,0,0,0,0,0,0,-5.8194,-5.821,-5.8343,-5.8344,-5.8346,-5.8428,-5.8417,-5.8538,-5.8432,-5.8398,-5.8423,-5.8418,-5.8506,-5.8516,-5.8547,-5.8683,-5.8688,-5.8578,-5.8583,-5.8586,-5.8589,0,0,0,0,0,0,0,-5.8186,-5.8205,-5.8392,-5.8345,-5.8347,-5.8337,-5.8349,-5.844,-5.8471,-5.8401,-5.8399,-5.8413,-5.8506,-5.8539,-5.8549,-5.869,-5.8578,-5.8585,-5.859,-5.8593,-5.8939,-5.8943,0,0,0,0,0,0,-5.8178,-5.8198,-5.8388,-5.8396,-5.8259,-5.8345,-5.8359,-5.8406,-5.847,-5.8477,-5.8416,-5.8411,-5.8527,-5.854,-5.8553,-5.8707,-5.8586,-5.8594,-5.8599,-5.8935,-5.894,-5.8944,0,0,0,0,0,0,-5.8172,-5.8195,-5.8384,-5.8297,-5.832,-5.8353,-5.8407,-5.841,-5.8443,-5.8482,-5.8487,-5.8444,-5.8524,-5.8542,-5.8648,-5.871,-5.8598,-5.8605,-5.8929,-5.8936,-5.8942,-5.9014,0,0,0,0,0,0,-5.8165,-5.8193,-5.8241,-5.8298,-5.8325,-5.8477,-5.841,-5.8415,-5.8458,-5.8452,-5.851,-5.8516,-5.8523,-5.8636,-5.8656,-5.872,-5.8612,-5.8924,-5.8932,-5.894,-5.9006,-5.9022,-5.9035,0,0,0,0,0,-5.8156,-5.8255,-5.8244,-5.8267,-5.8386,-5.8481,-5.8496,-5.8503,-5.8463,-5.8512,-5.8537,-5.8514,-5.87,-5.8647,-5.867,-5.8736,-5.892,-5.893,-5.8939,-5.8999,-5.9019,-5.9035,0,0,0,0,0,0,-5.8203,-5.8262,-5.8251,-5.8372,-5.8422,-5.8475,-5.8536,-5.8523,-5.8584,-5.8576,-5.8581,-5.8595,-5.8705,-5.8731,-5.8671,-5.8863,-5.8804,-5.8819,-5.8842,-5.8861,-5.8875,-5.8867,-5.8618,0,0,0,0,0,-5.8227,-5.8301,-5.8348,-5.845,-5.8477,-5.8502,-5.8544,-5.8545,-5.8597,-5.8618,-5.8651,-5.8701,-5.8771,-5.8817,-5.8883,-5.9009,-5.9022,-5.9066,-5.9081,-5.9093,-5.9106,-5.9177,-5.9198,-5.8976,-5.8976,-5.8976,0,0,-5.8279,-5.832,-5.8366,-5.8461,-5.85,-5.8576,-5.852,-5.8602,-5.8658,-5.8629,-5.8733,-5.876,-5.8816,-5.8934,-5.8987,-5.8959,-5.917,-5.9105,-5.9114,-5.9121,-5.9189,-5.921,-5.9229,-5.8982,-5.8981,-5.898,0,0,-5.8412,-5.845,-5.8541,-5.8582,-5.8643,-5.866,-5.8682,-5.8738,-5.8755,-5.8859,-5.884,-5.8907,-5.9026,-5.9069,-5.9106,-5.9258,-5.924,-5.9279,-5.9356,-5.9426,-5.9444,-5.9459,-5.9516,-5.9536,-5.9292,-5.9292,-5.9292,0,-5.8467,-5.8582,-5.8588,-5.8674,-5.8717,-5.8696,-5.8789,-5.8828,-5.8907,-5.8937,-5.8904,-5.9057,-5.9093,-5.9222,-5.926,-5.9289,-5.9316,-5.9273,-5.9441,-5.9456,-5.9471,-5.9525,-5.9547,-5.9296,-5.9296,-5.9295,-5.9295,0,-5.8649,-5.8728,-5.8794,-5.8874,-5.8925,-5.9012,-5.9033,-5.9083,-5.9081,-5.9101,-5.9209,-5.9253,-5.9329,-5.9359,-5.9356,-5.9489,-5.947,-5.9439,-5.938,-5.9497,-5.9548,-5.9569,-5.9303,-5.9301,-5.93,-5.9299,0,0,-5.8814,-5.8898,-5.8923,-5.896,-5.9027,-5.9088,-5.9176,-5.9253,-5.9297,-5.9352,-5.9427,-5.953,-5.9504,-5.9546,-5.9547,-5.9608,-5.973,-5.957,-5.9572,-5.9601,-5.9882,-5.9906,-5.993,-5.9718,-5.9722,-5.9725,-5.9878,0,-5.8954,-5.911,-5.9121,-5.9262,-5.9337,-5.932,-5.9397,-5.9446,-5.9468,-5.9535,-5.9558,-5.9633,-5.959,-5.9616,-5.9675,-5.9703,-5.9787,-5.9691,-5.9788,-5.9792,-5.9777,-5.9957,-5.9982,-6.0124,-5.9898,-5.9901,-5.9904,0,-5.9138,-5.9203,-5.9353,-5.9412,-5.9444,-5.9513,-5.9586,-5.9649,-5.9706,-5.9717,-5.9766,-5.9761,-5.9851,-5.9789,-5.9915,-5.985,-5.989,-5.991,-5.9915,-5.9926,-5.9856,-5.9974,-6.017,-6.0192,-5.9935,-5.9932,-5.993,0,-5.9248,-5.9371,-5.9478,-5.9509,-5.9581,-5.963,-5.9662,-5.9715,-5.9761,-5.9824,-5.9855,-5.9927,-5.9967,-6.0023,-6.0037,-5.9989,-6.0164,-6.0101,-6.0177,-6.0177,-6.0215,-6.0213,-6.0422,-6.0238,-6.0237,-6.0237,-6.0236,0,-5.9404,-5.9497,-5.9528,-5.9594,-5.9698,-5.9708,-5.9811,-5.9839,-5.9887,-5.9958,-5.9946,-6.0013,-6.0027,-6.0096,-6.0108,-6.0212,-6.0229,-6.0242,-6.0244,-6.0245,-6.0243,-6.0272,-6.0263,-6.0243,-6.0241,-6.024,-6.0239,0,-5.9544,-5.9568,-5.9684,-5.9743,-5.976,-5.9834,-5.9885,-5.9948,-5.9969,-6.006,-6.0081,-6.0115,-6.0197,-6.0216,-6.0312,-6.032,-6.0445,-6.0436,-6.0427,-6.0427,-6.0502,-6.0496,-6.0739,-6.0773,-6.0564,-6.0566,-6.0567,0,-5.9644,-5.9715,-5.9783,-5.9831,-5.9866,-5.9943,-5.9991,-6.0004,-6.0055,-6.0127,-6.0182,-6.0263,-6.0329,-6.046,-6.0493,-6.0567,-6.0562,-6.0642,-6.0573,-6.0572,-6.0566,-6.0563,-6.0572,-6.0656,-6.0658,-6.066,-6.0661,0,-5.9819,-5.9828,-5.9899,-5.9976,-6.0035,-6.0095,-6.0152,-6.0192,-6.0213,-6.0271,-6.0356,-6.0407,-6.0508,-6.0589,-6.0665,-6.0696,-6.0684,-6.0683,-6.0705,-6.0707,-6.07,-6.0707,-6.0465,-6.0677,-6.0676,-6.0674,-6.0673,-6.0673,-5.9943,-6.0008,-6.0067,-6.0147,-6.0192,-6.0247,-6.0311,-6.0342,-6.0413,-6.0498,-6.0501,-6.0594,-6.065,-6.0751,-6.0788,-6.0861,-6.0836,-6.0867,-6.0876,-6.0884,-6.0892,-6.0686,-6.0874,-6.0874,-6.0873,-6.0873,-6.0873,0,-6.0121,-6.0159,-6.0232,-6.0315,-6.0379,-6.0362,-6.0425,-6.048,-6.0563,-6.0617,-6.0683,-6.0782,-6.0862,-6.0901,-6.098,-6.1031,-6.1028,-6.1052,-6.1049,-6.1058,-6.0908,-6.0882,-6.1054,-6.1054,-6.1054,-6.1054,-6.1054,-6.1054,-6.022,-6.033,-6.0346,-6.0478,-6.0515,-6.0608,-6.0646,-6.0697,-6.0741,-6.0853,-6.092,-6.0946,-6.0995,-6.1078,-6.1151,-6.116,-6.1191,-6.1219,-6.1226,-6.1086,-6.1067,-6.105,-6.1026,-6.1225,-6.1225,-6.137,-6.1371,-6.1372]}]]